TimeEST,TemperatureF,Dew PointF,Humidity,Sea Level PressureIn,VisibilityMPH,Wind Direction,Wind SpeedMPH,Gust SpeedMPH,PrecipitationIn,Events,Conditions,WindDirDegrees,DateUTC
12:15 AM,30.2,23.0,75,30.29,10.0,Calm,Calm,-,N/A,,Scattered Clouds,0,2012-12-16 05:15:00
12:35 AM,30.2,23.0,75,30.29,10.0,East,3.5,-,N/A,,Mostly Cloudy,100,2012-12-16 05:35:00
12:55 AM,30.2,24.8,80,30.28,10.0,East,3.5,-,N/A,,Overcast,80,2012-12-16 05:55:00
1:15 AM,30.2,24.8,80,30.27,10.0,ENE,4.6,-,N/A,,Overcast,70,2012-12-16 06:15:00
1:35 AM,30.2,24.8,80,30.28,10.0,East,3.5,-,N/A,,Overcast,90,2012-12-16 06:35:00
2:15 AM,30.2,23.0,75,30.27,10.0,East,3.5,-,N/A,,Overcast,100,2012-12-16 07:15:00
2:35 AM,30.2,23.0,75,30.28,10.0,Calm,Calm,-,N/A,,Overcast,0,2012-12-16 07:35:00
2:55 AM,30.2,23.0,75,30.28,10.0,East,3.5,-,N/A,,Overcast,80,2012-12-16 07:55:00
3:15 AM,30.2,23.0,75,30.27,10.0,NE,3.5,-,N/A,,Overcast,50,2012-12-16 08:15:00
3:35 AM,30.2,21.2,69,30.26,10.0,ENE,3.5,-,N/A,,Overcast,70,2012-12-16 08:35:00
3:55 AM,30.2,21.2,69,30.27,10.0,ENE,3.5,-,N/A,,Overcast,70,2012-12-16 08:55:00
4:15 AM,30.2,21.2,69,30.26,10.0,East,3.5,-,N/A,,Overcast,80,2012-12-16 09:15:00
4:35 AM,30.2,21.2,69,30.26,10.0,ENE,4.6,-,N/A,,Overcast,70,2012-12-16 09:35:00
4:55 AM,30.2,21.2,69,30.25,10.0,ENE,5.8,-,N/A,,Overcast,70,2012-12-16 09:55:00
5:15 AM,30.2,21.2,69,30.25,10.0,ENE,3.5,-,N/A,,Overcast,70,2012-12-16 10:15:00
5:55 AM,30.2,21.2,69,30.25,10.0,East,4.6,-,N/A,,Overcast,100,2012-12-16 10:55:00
6:15 AM,32.0,21.2,64,30.25,10.0,East,4.6,-,N/A,,Overcast,80,2012-12-16 11:15:00
6:35 AM,32.0,21.2,64,30.25,10.0,ENE,6.9,-,N/A,,Overcast,70,2012-12-16 11:35:00
6:55 AM,32.0,21.2,64,30.25,10.0,East,6.9,-,N/A,,Overcast,90,2012-12-16 11:55:00
7:15 AM,32.0,21.2,64,30.24,10.0,East,5.8,-,N/A,,Overcast,80,2012-12-16 12:15:00
7:35 AM,32.0,21.2,64,30.24,10.0,East,5.8,-,N/A,,Overcast,100,2012-12-16 12:35:00
8:15 AM,32.0,21.2,64,30.25,10.0,East,8.1,-,N/A,,Overcast,80,2012-12-16 13:15:00
8:55 AM,33.8,21.2,60,30.24,10.0,East,8.1,-,N/A,,Overcast,90,2012-12-16 13:55:00
9:15 AM,33.8,21.2,60,30.25,10.0,East,8.1,-,N/A,,Overcast,90,2012-12-16 14:15:00
9:35 AM,33.8,23.0,65,30.25,10.0,East,5.8,-,N/A,,Overcast,90,2012-12-16 14:35:00
9:55 AM,33.8,23.0,65,30.25,10.0,East,8.1,-,N/A,,Overcast,90,2012-12-16 14:55:00
10:15 AM,33.8,23.0,65,30.23,10.0,East,9.2,-,N/A,,Overcast,100,2012-12-16 15:15:00
10:35 AM,33.8,23.0,65,30.23,10.0,East,8.1,-,N/A,,Overcast,90,2012-12-16 15:35:00
10:55 AM,33.8,23.0,65,30.22,10.0,East,11.5,16.1,N/A,,Overcast,90,2012-12-16 15:55:00
11:15 AM,35.6,24.8,65,30.21,10.0,East,10.4,16.1,N/A,,Overcast,90,2012-12-16 16:15:00
11:55 AM,35.6,24.8,65,30.19,10.0,East,11.5,-,N/A,,Overcast,90,2012-12-16 16:55:00
12:15 PM,35.6,24.8,65,30.18,10.0,East,11.5,-,N/A,,Overcast,100,2012-12-16 17:15:00
12:35 PM,35.6,24.8,65,30.17,10.0,East,11.5,-,N/A,,Overcast,90,2012-12-16 17:35:00
12:55 PM,35.6,24.8,65,30.17,10.0,ESE,9.2,-,N/A,,Overcast,110,2012-12-16 17:55:00
1:15 PM,35.6,24.8,65,30.16,10.0,East,10.4,16.1,N/A,,Overcast,100,2012-12-16 18:15:00
1:35 PM,35.6,24.8,65,30.15,10.0,East,12.7,17.3,N/A,,Overcast,90,2012-12-16 18:35:00
1:55 PM,35.6,24.8,65,30.15,10.0,East,12.7,16.1,N/A,,Overcast,90,2012-12-16 18:55:00
2:15 PM,33.8,26.6,75,30.15,9.0,East,10.4,17.3,N/A,,Overcast,90,2012-12-16 19:15:00
2:35 PM,33.8,28.4,81,30.15,9.0,ESE,9.2,-,N/A,,Overcast,110,2012-12-16 19:35:00
2:55 PM,33.8,28.4,81,30.14,5.0,East,8.1,-,N/A,,Overcast,90,2012-12-16 19:55:00
3:15 PM,33.8,28.4,81,30.14,5.0,East,8.1,-,N/A,,Overcast,90,2012-12-16 20:15:00
3:35 PM,33.8,28.4,81,30.13,4.0,ENE,4.6,-,N/A,,Overcast,70,2012-12-16 20:35:00
3:55 PM,33.8,28.4,81,30.13,5.0,East,9.2,-,N/A,,Overcast,80,2012-12-16 20:55:00
4:15 PM,33.8,28.4,81,30.12,5.0,East,8.1,-,N/A,,Overcast,90,2012-12-16 21:15:00
4:35 PM,33.8,30.2,87,30.12,5.0,East,6.9,-,N/A,,Overcast,90,2012-12-16 21:35:00
4:55 PM,33.8,30.2,87,30.11,3.0,East,8.1,-,N/A,,Overcast,90,2012-12-16 21:55:00
5:15 PM,33.8,30.2,87,30.10,4.0,East,8.1,-,N/A,,Overcast,80,2012-12-16 22:15:00
5:35 PM,33.8,30.2,87,30.10,4.0,East,6.9,-,N/A,,Overcast,80,2012-12-16 22:35:00
5:55 PM,33.8,30.2,87,30.10,5.0,East,8.1,-,0.01,,Overcast,80,2012-12-16 22:55:00
6:15 PM,33.8,30.2,87,30.10,5.0,East,6.9,-,N/A,,Overcast,80,2012-12-16 23:15:00
6:35 PM,33.8,30.2,87,30.10,3.0,ENE,8.1,-,0.03,,Overcast,70,2012-12-16 23:35:00
6:55 PM,33.8,30.2,87,30.09,4.0,East,9.2,-,0.06,,Overcast,80,2012-12-16 23:55:00
7:15 PM,33.8,30.2,87,30.08,3.0,East,11.5,-,0.02,,Overcast,90,2012-12-17 00:15:00
7:35 PM,33.8,32.0,93,30.08,3.0,East,9.2,-,0.04,,Overcast,80,2012-12-17 00:35:00
7:55 PM,33.8,30.2,87,30.07,3.0,East,8.1,-,0.05,,Overcast,90,2012-12-17 00:55:00
8:15 PM,35.6,32.0,87,30.07,4.0,East,8.1,-,N/A,,Overcast,80,2012-12-17 01:15:00
8:35 PM,35.6,32.0,87,30.07,4.0,East,9.2,-,N/A,,Overcast,90,2012-12-17 01:35:00
8:55 PM,35.6,32.0,87,30.06,3.0,East,8.1,-,N/A,,Overcast,80,2012-12-17 01:55:00
9:15 PM,35.6,32.0,87,30.05,3.0,East,8.1,-,N/A,,Overcast,80,2012-12-17 02:15:00
9:35 PM,35.6,32.0,87,30.05,3.0,East,8.1,-,N/A,,Overcast,80,2012-12-17 02:35:00
9:55 PM,35.6,32.0,87,30.04,3.0,East,6.9,-,0.01,,Overcast,80,2012-12-17 02:55:00
10:35 PM,35.6,33.8,93,30.04,6.0,ENE,8.1,-,N/A,,Overcast,70,2012-12-17 03:35:00
10:55 PM,35.6,33.8,93,30.04,7.0,ENE,9.2,-,N/A,,Overcast,60,2012-12-17 03:55:00
11:15 PM,35.6,33.8,93,30.04,5.0,ENE,9.2,-,0.01,,Overcast,70,2012-12-17 04:15:00
11:35 PM,35.6,33.8,93,30.03,6.0,ENE,9.2,-,0.01,,Overcast,60,2012-12-17 04:35:00
11:55 PM,35.6,33.8,93,30.02,3.0,ENE,9.2,-,0.06,,Overcast,70,2012-12-17 04:55:00